This is the latest recevied weather packets stored in our database for station/object WC4PEM-11. If no packets are shown the sender has not sent any weather packets the latest 10 day(s).
| Time | Temp. | Humidity | Pressure | Rain* | Wind** | Luminosity | Snow |
|---|---|---|---|---|---|---|---|
| 1777941186 | 22.78° C | 73% | 1015.4 hPa | 0 mm | - | - | - |
| 1777940886 | 22.78° C | 72% | 1015.2 hPa | 0 mm | - | - | - |
| 1777940586 | 22.78° C | 72% | 1015 hPa | 0 mm | - | - | - |
| 1777940286 | 23.33° C | 72% | 1014.9 hPa | 0 mm | - | - | - |
| 1777939986 | 23.33° C | 71% | 1014.7 hPa | 0 mm | - | - | - |
| 1777939686 | 23.33° C | 71% | 1014.5 hPa | 0 mm | - | - | - |
| 1777939386 | 23.33° C | 70% | 1014.5 hPa | 0 mm | - | - | - |
| 1777939086 | 23.33° C | 69% | 1014.6 hPa | 0 mm | - | - | - |
| 1777938786 | 23.89° C | 69% | 1014.7 hPa | 0 mm | - | - | - |
| 1777938591 | 24.44° C | 68% | 1014.3 hPa | 0 mm | - | - | - |
| 1777938486 | 23.89° C | 70% | 1014.5 hPa | 0 mm | - | - | - |
| 1777938186 | 23.89° C | 69% | 1014.4 hPa | 0 mm | - | - | - |
| 1777937886 | 24.44° C | 69% | 1014.4 hPa | 0 mm | - | - | - |
| 1777937586 | 24.44° C | 68% | 1014.3 hPa | 0 mm | - | - | - |
| 1777937286 | 24.44° C | 67% | 1014.3 hPa | 0 mm | - | - | - |
| 1777936986 | 25° C | 66% | 1014.3 hPa | 0 mm | - | - | - |
| 1777936686 | 25° C | 66% | 1014.3 hPa | 0 mm | - | - | - |
| 1777936386 | 25° C | 66% | 1014.3 hPa | 0 mm | - | - | - |
| 1777936086 | 25.56° C | 65% | 1014.2 hPa | 0 mm | - | - | - |
| 1777935786 | 25.56° C | 64% | 1014.1 hPa | 0 mm | - | - | - |
| 1777935486 | 26.11° C | 64% | 1014.1 hPa | 0 mm | - | - | - |
| 1777935186 | 26.11° C | 64% | 1014 hPa | 0 mm | - | - | - |
| 1777935036 | 26.67° C | 62% | 1014.1 hPa | 0 mm | - | - | - |
| 1777934886 | 26.11° C | 62% | 1014.2 hPa | 0 mm | - | - | - |
| 1777934586 | 26.67° C | 62% | 1014.1 hPa | 0 mm | - | - | - |
* Rain latest hour (hover to see other rain measurements)
** Current wind speed in m/s (hover to see current wind gust speed)